カタログに戻る

COSMOS 1275 DEB

運用中PO
NORAD 13472·DEBRIS·🇷🇺 Russia

打ち上げ Jun 4, 1981 から Plesetsk Cosmodrome

Loading…

次のパス (今後24時間)

TLE

最新Source: Space-Track

元期: Sep 14, 2026, 06:47 UTC

1 13472U 81053FU  26257.28298830  .00003388  00000-0  11247-2 0  9995
2 13472  82.8413 256.6114 0014215  19.4649 352.3370 14.37510127262189

AllMySatでCOSMOS 1275 DEBをリアルタイム追跡

Download on the App Store